Tracking 18816 objects as of 17-October-2017
HD Live streaming from Space Station
objects crossing your sky now

SSU 1

Track SSU 1 now!
10-day predictions
SSU 1 is classified as:


NORAD ID: 8835
Int'l Code: 1976-038C
Perigee: 454.9 km
Apogee: 1,483.9 km
Inclination: 63.3 °
Period: 104.3 minutes
Semi major axis: 7340 km
RCS: Unknown
Launch date: April 30, 1976
Source: United States (US)
Launch site: AIR FORCE WESTERN TEST RANGE (AFWTR)
aabbcc
Your satellite tracking list
Your tracking list is empty





NASA's NSSDC Master Catalog

Two Line Element Set (TLE):
1 08835U 76038C   17273.12970269 0.00001000  00000-0  13335-3 0    06
2 08835  63.2903  28.6552 0700956 135.7287 224.2712 13.80460518    03
Source of the keplerian elements: McCants